timestamp,wind_dir_avg,wind_spd_avg,wind_spd_max_dir,wind_spd_gust,battery_voltage,lat,long
2021-11-16 00:04:00+00:00,148.0,9.16,146.0,10.87,12.65,47.59359,-54.27349
2021-11-16 00:14:01+00:00,155.0,10.77,151.0,12.15,12.57,47.59359,-54.27349
2021-11-16 00:24:01+00:00,155.0,10.11,150.0,12.15,12.57,47.59359,-54.27349
2021-11-16 00:34:01+00:00,151.0,10.21,153.0,11.77,12.57,47.59359,-54.27349
2021-11-16 00:44:01+00:00,148.0,10.7,147.0,11.95,12.57,47.59359,-54.27349
2021-11-16 00:54:01+00:00,149.0,9.78,147.0,11.97,12.57,47.59359,-54.27349
2021-11-16 01:04:01+00:00,150.0,9.49,149.0,10.99,12.57,47.59359,-54.27349
2021-11-16 01:14:00+00:00,143.0,9.35,139.0,11.36,12.57,47.59359,-54.27349
2021-11-16 01:24:00+00:00,148.0,9.8,146.0,11.65,12.57,47.59359,-54.27349
2021-11-16 01:34:00+00:00,146.0,8.86,147.0,10.63,12.57,47.59359,-54.27349
2021-11-16 01:44:00+00:00,143.0,8.84,146.0,10.95,12.57,47.59359,-54.27349
2021-11-16 01:54:00+00:00,136.0,7.37,138.0,9.07,12.57,47.59359,-54.27349
2021-11-16 02:04:00+00:00,142.0,7.51,141.0,9.76,12.57,47.59359,-54.27349
2021-11-16 02:14:00+00:00,140.0,6.56,137.0,8.01,12.57,47.59359,-54.27349
2021-11-16 02:24:00+00:00,140.0,8.39,141.0,9.98,12.57,47.59359,-54.27349
2021-11-16 02:34:00+00:00,147.0,9.52,145.0,10.91,12.57,47.59359,-54.27349
2021-11-16 02:44:00+00:00,151.0,9.05,148.0,10.84,12.57,47.59359,-54.27349
2021-11-16 02:54:00+00:00,158.0,11.59,155.0,13.1,12.57,47.59359,-54.27349
2021-11-16 03:04:00+00:00,144.0,10.23,136.0,13.74,12.57,47.59359,-54.27349
2021-11-16 03:14:00+00:00,150.0,8.8,154.0,10.05,12.57,47.59359,-54.27349
2021-11-16 03:24:00+00:00,141.0,8.08,138.0,9.71,12.57,47.59359,-54.27349
2021-11-16 03:34:00+00:00,142.0,6.93,140.0,8.59,12.57,47.59359,-54.27349
2021-11-16 03:44:00+00:00,126.0,5.65,128.0,7.98,12.57,47.59359,-54.27349
2021-11-16 03:54:00+00:00,122.0,4.61,130.0,5.51,12.57,47.59359,-54.27349
2021-11-16 04:04:00+00:00,116.0,4.66,115.0,6.19,12.57,47.59359,-54.27349
2021-11-16 04:14:00+00:00,160.0,4.8,164.0,5.91,12.57,47.59359,-54.27349
2021-11-16 04:24:00+00:00,163.0,4.94,164.0,6.63,12.57,47.59359,-54.27349
2021-11-16 04:34:00+00:00,159.0,10.13,165.0,13.13,12.57,47.59359,-54.27349
2021-11-16 04:44:00+00:00,163.0,13.32,170.0,16.8,12.57,47.59359,-54.27349
2021-11-16 04:54:00+00:00,160.0,13.57,155.0,16.44,12.57,47.59359,-54.27349
2021-11-16 05:04:00+00:00,168.0,16.47,173.0,18.83,12.57,47.59359,-54.27349
2021-11-16 05:14:00+00:00,172.0,16.42,169.0,19.79,12.57,47.59359,-54.27349
2021-11-16 05:24:00+00:00,173.0,14.93,166.0,17.74,12.57,47.59359,-54.27349
2021-11-16 05:34:00+00:00,168.0,15.95,169.0,18.98,12.57,47.59359,-54.27349
2021-11-16 05:44:00+00:00,176.0,14.75,177.0,16.6,12.57,47.59359,-54.27349
2021-11-16 05:54:00+00:00,174.0,14.22,174.0,17.34,12.57,47.59359,-54.27349
2021-11-16 06:04:00+00:00,187.0,17.42,184.0,20.53,12.57,47.59359,-54.27349
2021-11-16 06:14:00+00:00,196.0,15.54,197.0,18.21,12.49,47.59359,-54.27349
2021-11-16 06:24:00+00:00,197.0,17.46,199.0,21.3,12.49,47.59359,-54.27349
2021-11-16 06:34:00+00:00,205.0,15.1,208.0,17.3,12.49,47.59359,-54.27349
2021-11-16 06:44:00+00:00,203.0,17.79,199.0,19.74,12.49,47.59359,-54.27349
2021-11-16 06:54:00+00:00,208.0,13.81,207.0,16.44,12.49,47.59359,-54.27349
2021-11-16 07:04:00+00:00,214.0,12.13,215.0,13.73,12.49,47.59359,-54.27349
2021-11-16 07:14:01+00:00,214.0,11.7,212.0,13.5,12.57,47.59359,-54.27349
2021-11-16 07:24:01+00:00,221.0,10.49,225.0,12.42,12.57,47.59359,-54.27349
2021-11-16 07:34:01+00:00,219.0,10.42,221.0,11.99,12.57,47.59359,-54.27349
2021-11-16 07:44:01+00:00,217.0,10.88,216.0,12.45,12.57,47.59359,-54.27349
2021-11-16 07:54:01+00:00,226.0,9.47,227.0,10.83,12.57,47.59359,-54.27349
2021-11-16 08:04:01+00:00,235.0,9.73,240.0,11.58,12.57,47.59359,-54.27349
2021-11-16 08:14:00+00:00,234.0,10.02,233.0,11.34,12.49,47.59359,-54.27349
2021-11-16 08:24:00+00:00,232.0,9.05,238.0,10.9,12.49,47.59359,-54.27349
2021-11-16 08:34:00+00:00,234.0,9.78,226.0,10.97,12.49,47.59359,-54.27349
2021-11-16 08:44:00+00:00,234.0,9.38,234.0,10.52,12.49,47.59359,-54.27349
2021-11-16 08:54:00+00:00,232.0,8.62,241.0,10.18,12.49,47.59359,-54.27349
2021-11-16 09:04:00+00:00,226.0,9.69,228.0,11.26,12.49,47.59359,-54.27349
2021-11-16 09:14:01+00:00,232.0,10.28,234.0,12.93,12.49,47.59359,-54.27349
2021-11-16 09:24:01+00:00,236.0,10.57,238.0,11.99,12.49,47.59359,-54.27349
2021-11-16 09:34:01+00:00,231.0,8.52,231.0,9.81,12.49,47.59359,-54.27349
2021-11-16 09:44:01+00:00,226.0,8.72,220.0,11.41,12.49,47.59359,-54.27349
2021-11-16 09:54:01+00:00,224.0,8.42,223.0,10.28,12.49,47.59359,-54.27349
2021-11-16 10:04:01+00:00,226.0,9.79,225.0,12.24,12.49,47.59359,-54.27349
2021-11-16 10:14:00+00:00,224.0,12.36,220.0,14.77,12.49,47.59359,-54.27349
2021-11-16 10:24:00+00:00,233.0,9.74,243.0,11.75,12.49,47.59359,-54.27349
2021-11-16 10:34:00+00:00,242.0,9.9,242.0,11.52,12.49,47.59359,-54.27349
2021-11-16 10:44:00+00:00,233.0,8.91,236.0,10.39,12.49,47.59359,-54.27349
2021-11-16 10:54:00+00:00,230.0,9.13,231.0,11.06,12.49,47.59359,-54.27349
2021-11-16 11:04:00+00:00,233.0,8.99,232.0,10.31,12.49,47.59359,-54.27349
2021-11-16 11:14:01+00:00,232.0,10.83,236.0,12.7,12.49,47.59359,-54.27349
2021-11-16 11:24:01+00:00,229.0,10.1,219.0,11.67,12.49,47.59359,-54.27349
2021-11-16 11:34:01+00:00,233.0,9.5,236.0,11.66,12.49,47.59359,-54.27349
2021-11-16 11:44:01+00:00,230.0,10.43,230.0,12.9,12.49,47.59359,-54.27349
2021-11-16 11:54:01+00:00,229.0,12.14,231.0,15.0,12.49,47.59359,-54.27349
2021-11-16 12:04:01+00:00,225.0,11.59,220.0,15.23,12.49,47.59359,-54.27349
2021-11-16 12:14:01+00:00,230.0,10.7,230.0,13.24,14.0,47.59359,-54.27349
2021-11-16 12:24:01+00:00,229.0,11.61,234.0,14.28,14.0,47.59359,-54.27349
2021-11-16 12:34:01+00:00,229.0,10.72,232.0,13.48,14.0,47.59359,-54.27349
2021-11-16 12:44:01+00:00,228.0,11.57,231.0,13.59,14.0,47.59359,-54.27349
2021-11-16 12:54:01+00:00,230.0,13.76,231.0,17.95,14.0,47.59359,-54.27349
2021-11-16 13:04:01+00:00,232.0,16.07,231.0,19.86,14.0,47.59359,-54.27349
2021-11-16 13:14:01+00:00,226.0,12.06,226.0,14.22,14.32,47.59359,-54.27349
2021-11-16 13:24:01+00:00,232.0,13.22,234.0,15.59,14.32,47.59359,-54.27349
2021-11-16 13:34:01+00:00,229.0,15.76,236.0,20.91,14.32,47.59359,-54.27349
2021-11-16 13:44:01+00:00,230.0,16.7,239.0,23.09,14.32,47.59359,-54.27349
2021-11-16 13:54:01+00:00,232.0,15.5,244.0,23.0,14.32,47.59359,-54.27349
2021-11-16 14:04:01+00:00,222.0,14.25,224.0,17.76,14.32,47.59359,-54.27349
2021-11-16 14:14:01+00:00,229.0,14.72,230.0,16.39,13.53,47.59359,-54.27349
2021-11-16 14:24:01+00:00,227.0,15.25,223.0,19.07,13.53,47.59359,-54.27349
2021-11-16 14:34:01+00:00,234.0,16.35,231.0,19.37,13.53,47.59359,-54.27349
2021-11-16 14:44:01+00:00,228.0,14.43,222.0,17.02,13.53,47.59359,-54.27349
2021-11-16 14:54:01+00:00,230.0,14.66,221.0,17.16,13.53,47.59359,-54.27349
2021-11-16 15:04:01+00:00,230.0,15.51,230.0,18.32,13.53,47.59359,-54.27349
2021-11-16 15:14:00+00:00,231.0,13.91,233.0,17.03,13.68,47.59359,-54.27349
2021-11-16 15:24:00+00:00,234.0,15.65,241.0,19.85,13.68,47.59359,-54.27349
2021-11-16 15:34:00+00:00,224.0,16.09,220.0,18.34,13.68,47.59359,-54.27349
2021-11-16 15:44:00+00:00,232.0,20.53,235.0,25.34,13.68,47.59359,-54.27349
2021-11-16 15:54:00+00:00,234.0,16.51,237.0,19.58,13.68,47.59359,-54.27349
2021-11-16 16:04:00+00:00,233.0,18.1,238.0,24.91,13.68,47.59359,-54.27349
2021-11-16 16:14:01+00:00,248.0,18.18,252.0,22.25,13.68,47.59359,-54.27349
2021-11-16 16:24:01+00:00,232.0,15.94,249.0,22.07,13.68,47.59359,-54.27349
2021-11-16 16:34:01+00:00,232.0,15.71,243.0,21.22,13.68,47.59359,-54.27349
2021-11-16 16:44:01+00:00,233.0,15.16,226.0,17.47,13.68,47.59359,-54.27349
2021-11-16 16:54:01+00:00,233.0,14.91,231.0,17.3,13.68,47.59359,-54.27349
2021-11-16 17:04:01+00:00,233.0,16.03,235.0,21.76,13.68,47.59359,-54.27349
2021-11-16 17:14:01+00:00,233.0,14.51,238.0,17.21,13.84,47.59359,-54.27349
2021-11-16 17:24:01+00:00,233.0,15.23,227.0,16.77,13.84,47.59359,-54.27349
2021-11-16 17:34:01+00:00,255.0,13.42,254.0,16.69,13.84,47.59359,-54.27349
2021-11-16 17:44:01+00:00,255.0,13.38,253.0,14.91,13.84,47.59359,-54.27349
2021-11-16 17:54:01+00:00,244.0,14.34,241.0,16.2,13.84,47.59359,-54.27349
2021-11-16 18:04:01+00:00,248.0,15.07,249.0,17.09,13.84,47.59359,-54.27349
2021-11-16 18:14:01+00:00,240.0,14.53,240.0,16.21,14.16,47.59359,-54.27349
2021-11-16 18:24:01+00:00,234.0,15.65,239.0,18.16,14.16,47.59359,-54.27349
2021-11-16 18:34:01+00:00,239.0,14.86,234.0,17.14,14.16,47.59359,-54.27349
2021-11-16 18:44:01+00:00,238.0,14.93,236.0,16.57,14.16,47.59359,-54.27349
2021-11-16 18:54:01+00:00,237.0,14.93,225.0,16.85,14.16,47.59359,-54.27349
2021-11-16 19:04:01+00:00,233.0,15.16,232.0,17.93,14.16,47.59359,-54.27349
2021-11-16 19:14:01+00:00,236.0,15.4,237.0,18.13,13.6,47.59359,-54.27349
2021-11-16 19:24:01+00:00,242.0,16.16,242.0,18.97,13.6,47.59359,-54.27349
2021-11-16 19:34:01+00:00,231.0,15.77,239.0,17.87,13.6,47.59359,-54.27349
2021-11-16 19:44:01+00:00,233.0,15.2,238.0,18.16,13.6,47.59359,-54.27349
2021-11-16 19:54:01+00:00,244.0,15.82,248.0,18.62,13.6,47.59359,-54.27349
2021-11-16 20:04:01+00:00,237.0,15.41,246.0,21.28,13.6,47.59359,-54.27349
2021-11-16 20:14:01+00:00,235.0,14.97,238.0,17.34,12.97,47.59359,-54.27349
2021-11-16 20:24:01+00:00,238.0,16.64,242.0,18.6,12.97,47.59359,-54.27349
2021-11-16 20:34:01+00:00,237.0,15.19,230.0,17.47,12.97,47.59359,-54.27349
2021-11-16 20:44:01+00:00,234.0,15.73,231.0,17.57,12.97,47.59359,-54.27349
2021-11-16 20:54:01+00:00,237.0,14.88,238.0,17.06,12.97,47.59359,-54.27349
2021-11-16 21:04:01+00:00,239.0,14.38,243.0,17.28,12.97,47.59359,-54.27349
2021-11-16 21:14:01+00:00,244.0,13.1,249.0,16.14,12.65,47.59359,-54.27349
2021-11-16 21:24:01+00:00,244.0,14.27,246.0,16.71,12.65,47.59359,-54.27349
2021-11-16 21:34:01+00:00,243.0,15.11,236.0,17.69,12.65,47.59359,-54.27349
2021-11-16 21:44:01+00:00,237.0,13.97,240.0,17.36,12.65,47.59359,-54.27349
2021-11-16 21:54:01+00:00,241.0,14.58,243.0,17.42,12.65,47.59359,-54.27349
2021-11-16 22:04:01+00:00,243.0,14.45,244.0,16.99,12.65,47.59359,-54.27349
2021-11-16 22:14:01+00:00,246.0,15.06,241.0,17.89,12.65,47.59359,-54.27349
2021-11-16 22:24:01+00:00,241.0,15.87,240.0,17.42,12.65,47.59359,-54.27349
2021-11-16 22:34:01+00:00,245.0,14.01,246.0,15.65,12.65,47.59359,-54.27349
2021-11-16 22:44:01+00:00,241.0,14.89,245.0,16.88,12.65,47.59359,-54.27349
2021-11-16 22:54:01+00:00,242.0,14.87,243.0,16.97,12.65,47.59359,-54.27349
2021-11-16 23:04:01+00:00,246.0,14.02,245.0,15.94,12.65,47.59359,-54.27349
2021-11-16 23:14:01+00:00,241.0,15.49,235.0,19.2,12.57,47.59359,-54.27349
2021-11-16 23:24:01+00:00,245.0,13.81,247.0,15.79,12.57,47.59359,-54.27349
2021-11-16 23:34:01+00:00,241.0,14.25,241.0,16.0,12.57,47.59359,-54.27349
2021-11-16 23:44:01+00:00,240.0,14.78,236.0,17.03,12.57,47.59359,-54.27349
2021-11-16 23:54:01+00:00,247.0,14.56,246.0,16.76,12.57,47.59359,-54.27349
